sat.trackr.live / text

‹ back to catalog

STARLINK-34962

NORAD 65248 · 2025-179P

PAYLOAD ACTIVE UNKNOWN

§ Identity

Operator
Country
US
Launch date
2025-08-18
Launch site
AFWTR
Launch vehicle
Mass (kg)
RCS (m²)

Purposes: comms

External: N2YO · Heavens-Above · Gunter

§ Orbital elements

Epoch: 2026-05-25T02:05:24.717696Z

Period
95.64 min
Inclination
97.4484°
Eccentricity
0.0001324
Mean motion
15.05652141 rev/d
Perigee alt
548.6 km
Apogee alt
550.4 km
Semi-major
6,927.6 km
B*
8.3183e-5
RAAN
187.8977°
Arg perigee
152.0067°
Mean anomaly
208.1231°
Rev number
4,332

§ Raw data

STARLINK-349621 65248U 25179P   26145.08709164  .00001142  00000+0  83183-4 0  99962 65248  97.4484 187.8977 0001324 152.0067 208.1231 15.05652141 43320

JSON: /api/v1/satellites/65248 · /tle

For live sub-satellite position, see the globe view (requires WebGL).

§ Visibility from observer

Set your observer location to see the next 7 days of passes ≥ 10°. The values pass through the URL so the page stays shareable.

No JS? Fill the form by hand. The geolocation button needs JavaScript.